Time,TemperatureF,DewpointF,PressureIn,WindDirection,WindDirectionDegrees,WindSpeedMPH,WindSpeedGustMPH,Humidity,HourlyPrecipIn,Conditions,Clouds,dailyrainin,SoftwareType,DateUTC
2013-05-03 00:00:00,46.0,20.0,-100.00,North,-999,-999.0,-999.0,35,-99.99,,,0.00,,2013-05-03 07:00:00,
2013-05-03 00:52:00,46.0,20.0,-100.00,North,-999,-999.0,-999.0,35,-99.99,,,0.00,,2013-05-03 07:52:00,
2013-05-03 01:00:00,45.0,20.0,-100.00,North,6,3.0,5.0,37,-99.99,,,0.00,,2013-05-03 08:00:00,
2013-05-03 02:00:00,46.0,21.0,-100.00,NNW,329,5.0,7.0,37,-99.99,,,0.00,,2013-05-03 09:00:00,
2013-05-03 03:00:00,44.0,17.0,-100.00,NW,318,5.0,9.0,33,-99.99,,,0.00,,2013-05-03 10:00:00,
2013-05-03 04:00:00,44.0,21.0,-100.00,WNW,289,4.0,8.0,40,-99.99,,,0.00,,2013-05-03 11:00:00,
2013-05-03 05:00:00,41.0,26.0,-100.00,West,262,5.0,9.0,54,-99.99,,,0.00,,2013-05-03 12:00:00,
2013-05-03 06:00:00,41.0,28.0,-100.00,WNW,284,4.0,7.0,58,-99.99,,,0.00,,2013-05-03 13:00:00,
2013-05-03 07:00:00,43.0,28.0,-100.00,NW,315,3.0,5.0,55,-99.99,,,0.00,,2013-05-03 14:00:00,
2013-05-03 08:00:00,47.0,30.0,-100.00,NNE,23,3.0,7.0,51,-99.99,,,0.00,,2013-05-03 15:00:00,
2013-05-03 09:00:00,47.0,30.0,-100.00,WSW,255,4.0,8.0,50,-99.99,,,0.00,,2013-05-03 16:00:00,
2013-05-03 10:00:00,48.0,30.0,-100.00,NNW,339,4.0,7.0,49,-99.99,,,0.00,,2013-05-03 17:00:00,
2013-05-03 11:00:00,49.0,30.0,-100.00,North,9,5.0,8.0,47,-99.99,,,0.00,,2013-05-03 18:00:00,
2013-05-03 12:00:00,50.0,29.0,-100.00,North,352,3.0,8.0,43,-99.99,,,0.00,,2013-05-03 19:00:00,
2013-05-03 13:00:00,54.0,29.0,-100.00,SW,227,3.0,6.0,38,-99.99,,,-99.99,,2013-05-03 20:00:00,
2013-05-03 14:00:00,57.0,25.0,-100.00,WNW,296,3.0,5.0,29,-99.99,,,-99.99,,2013-05-03 21:00:00,
2013-05-03 14:43:00,57.0,25.0,-100.00,WNW,296,3.0,5.0,29,-99.99,,,-99.99,,2013-05-03 21:43:00,
2013-05-03 14:53:00,57.0,25.0,-100.00,WNW,296,3.0,5.0,29,-99.99,,,-99.99,,2013-05-03 21:53:00,
2013-05-03 15:00:00,57.0,22.0,-100.00,ENE,73,3.0,6.0,26,-99.99,,,0.00,,2013-05-03 22:00:00,
2013-05-03 15:42:00,57.0,22.0,-100.00,ENE,73,3.0,6.0,26,-99.99,,,0.00,,2013-05-03 22:42:00,
2013-05-03 15:52:00,57.0,22.0,-100.00,ENE,73,3.0,6.0,26,-99.99,,,0.00,,2013-05-03 22:52:00,
2013-05-03 16:00:00,58.0,24.0,-100.00,NNE,24,3.0,6.0,27,-99.99,,,0.00,,2013-05-03 23:00:00,
2013-05-03 16:52:00,58.0,24.0,-100.00,NNE,24,3.0,6.0,27,-99.99,,,0.00,,2013-05-03 23:52:00,
2013-05-03 17:00:00,59.0,27.0,-100.00,NNE,24,3.0,6.0,30,-99.99,,,-99.99,,2013-05-04 00:00:00,
2013-05-03 17:42:00,58.0,27.0,-100.00,NNE,24,3.0,6.0,30,-99.99,,,-99.99,,2013-05-04 00:42:00,
2013-05-03 17:52:00,59.0,27.0,-100.00,NNE,24,3.0,6.0,30,-99.99,,,-99.99,,2013-05-04 00:52:00,
2013-05-03 18:00:00,57.0,27.0,-100.00,NE,35,3.0,6.0,31,-99.99,,,-99.99,,2013-05-04 01:00:00,
2013-05-03 18:42:00,57.0,27.0,-100.00,NE,35,3.0,6.0,31,-99.99,,,-99.99,,2013-05-04 01:42:00,
2013-05-03 18:52:00,57.0,27.0,-100.00,NE,35,3.0,6.0,31,-99.99,,,-99.99,,2013-05-04 01:52:00,
2013-05-03 19:00:00,55.0,27.0,-100.00,North,8,3.0,5.0,33,-99.99,,,0.00,,2013-05-04 02:00:00,
2013-05-03 19:42:00,55.0,27.0,-100.00,North,8,3.0,5.0,33,-99.99,,,0.00,,2013-05-04 02:42:00,
2013-05-03 19:52:00,55.0,27.0,-100.00,North,8,3.0,5.0,33,-99.99,,,0.00,,2013-05-04 02:52:00,
2013-05-03 20:00:00,50.0,28.0,-100.00,NE,39,1.0,4.0,43,-99.99,,,0.00,,2013-05-04 03:00:00,
2013-05-03 20:43:00,50.0,28.0,-100.00,NE,39,1.0,4.0,43,-99.99,,,0.00,,2013-05-04 03:43:00,
2013-05-03 20:53:00,50.0,28.0,-100.00,NE,39,1.0,4.0,43,-99.99,,,0.00,,2013-05-04 03:53:00,
2013-05-03 21:00:00,50.0,32.0,-100.00,NW,322,1.0,3.0,50,-99.99,,,0.00,,2013-05-04 04:00:00,
2013-05-03 22:00:00,49.0,31.0,-100.00,NW,326,3.0,4.0,50,-99.99,,,0.00,,2013-05-04 05:00:00,
2013-05-03 22:43:00,49.0,31.0,-100.00,NW,326,3.0,4.0,50,-99.99,,,0.00,,2013-05-04 05:43:00,
2013-05-03 22:52:00,49.0,31.0,-100.00,NW,326,3.0,4.0,50,-99.99,,,0.00,,2013-05-04 05:52:00,
2013-05-03 23:00:00,47.0,31.0,-100.00,North,350,1.0,3.0,52,-99.99,,,0.00,,2013-05-04 06:00:00,
2013-05-03 23:42:00,47.0,31.0,-100.00,North,350,1.0,3.0,52,-99.99,,,0.00,,2013-05-04 06:42:00,
2013-05-03 23:52:00,47.0,31.0,-100.00,North,350,1.0,3.0,52,-99.99,,,0.00,,2013-05-04 06:52:00,